Zurück zum Katalog

STARLINK-34942

AktivKommunikationSSO
NORAD 65181·PAYLOAD·🇺🇸 United States

Gestartet Aug 14, 2025 von Vandenberg Space Force Base

Loading…

Nächste Überflüge (nächste 24 Stunden)

TLE

AktuellSource: CelesTrak SupGP

Epoche: Sep 15, 2026, 03:37 UTC

1 65181C 25175H   26258.15118056  .00008727  00000+0  27077-3 0  2588
2 65181  97.2849 127.2777 0001720  93.2843  65.2802 15.33451568    19

Verfolge STARLINK-34942 in Echtzeit mit AllMySat

Download on the App Store